Flag for USA

Past Weather in Spokane, Washington, USA — Yesterday and Last 2 Weeks

Now
55 °F

Partly sunny.


Feels Like: 54 °F
Forecast: 50 / 34 °F
Wind: 5 mph from Southwest

Location: Felts Field
Current Time: Oct 20, 2020 at 5:01:38 pm
Latest Report: Oct 20, 2020 at 3:53 pm
Visibility: 10 mi
Pressure30.04 "Hg(28.06 "Hg at 569m altitude)
Humidity: 44%
Dew Point: 33 °F
Location of SpokaneLocation

Past Weather in Spokane — Graph

°F

Spokane Temperature Yesterday

Maximum temperature yesterday: 62 °F (at 1:53 pm)
Minimum temperature yesterday: 44 °F (at 6:53 am)
Average temperature yesterday: 53 °F

High & Low Weather Summary for the Past Weeks

 TemperatureHumidityPressure
High82 °F (Oct 6, 4:53 pm)97% (Oct 15, 6:53 am)30.58 "Hg (Oct 15, 6:53 am)
Low34 °F (Oct 15, 6:53 am)26% (Oct 5, 3:53 pm)29.56 "Hg (Oct 10, 1:53 pm)
Average54 °F63%29.97 "Hg
* Reported Oct 5 3:53 pm — Oct 20 3:53 pm, Spokane. Weather by CustomWeather, © 2020

Note: Actual official high and low records may vary slightly from our data, if they occured in-between our weather recording intervals... More about our weather records

Spokane Weather History for the Previous 24 Hours

Scroll right to see more
 ConditionsComfort  
Time TempWeatherWind HumidityBarometerVisibility
3:53 pm
Tue, Oct 20
55 °FPartly sunny.5 mph44%30.04 "Hg10 mi
2:53 pm56 °FSunny.No wind46%30.05 "Hg10 mi
1:53 pm53 °FPassing clouds.No wind48%30.09 "Hg10 mi
12:53 pm52 °FPartly sunny.3 mph50%30.12 "Hg10 mi
11:53 am50 °FOvercast.No wind57%30.14 "Hg10 mi
10:53 am48 °FPartly sunny.3 mph61%30.14 "Hg10 mi
9:53 am45 °FOvercast.3 mph68%30.15 "Hg10 mi
8:53 am43 °FSunny.No wind74%30.16 "Hg10 mi
7:53 am37 °FSunny.No wind93%30.15 "Hg10 mi
6:53 am37 °FClear.No wind89%30.14 "Hg10 mi
5:53 am38 °FClear.No wind86%30.14 "Hg10 mi
4:53 am39 °FClear.3 mph82%30.11 "Hg10 mi
3:53 am41 °FClear.No wind80%30.10 "Hg10 mi
2:53 am43 °FClear.No wind76%30.09 "Hg10 mi
1:53 am46 °FClear.3 mph63%30.07 "Hg10 mi
12:53 am48 °FPassing clouds.No wind61%30.05 "Hg10 mi
11:53 pm
Mon, Oct 19
49 °FPassing clouds.5 mph61%30.02 "Hg10 mi
10:53 pm52 °FOvercast.7 mph53%30.00 "Hg10 mi
9:53 pm53 °FOvercast.3 mph48%29.97 "Hg10 mi
8:53 pm55 °FOvercast.8 mph44%29.95 "Hg10 mi
7:53 pm57 °FOvercast.10 mph41%29.92 "Hg10 mi
6:53 pm57 °FOvercast.9 mph49%29.92 "Hg10 mi
5:53 pm58 °FOvercast.9 mph50%29.91 "Hg10 mi
Weather by CustomWeather, © 2020

See weather overview